Погода в Кировске

Россия / Оренбургская область     52°09′05″N   59°37′18″E
темп.,
°C
ветер,
м/с
пор.,
м/с
влажн.,
%
обл.,
%
осадки,
мм/ч
давл.,
гПа
погр.,
м
25 февраля, чт
чт2523:00−24с5149097 0.1 1020722
02:00−23ссз4119692 0.0 1022385
05:00−25ссз479494 0.1 1025119
08:00−27сз349221 0.0 102831
11:00−23сз348610 0.0 1030148
14:00−20сз23800 0.0 1031249
17:00−22зюз12850 0.0 103220
20:00−25ююз34840 0.0 103325
26 февраля, пт
пт2623:00−26ююз45960 0.0 103353
02:00−29ююз44930 0.0 103346
05:00−29юз44870 0.0 103244
08:00−27ююз359276 0.0 1031105
11:00−23ююз469188 0.0 1030211
14:00−20ю469596 0.0 1028274
17:00−19ююв479698 0.1 1027338
20:00−20ююв4899100 0.1 1027204
27 февраля, сб
сб2723:00−23ююв4810099 0.1 1026149
02:00−22юв489899 0.1 1024203
05:00−21юв499897 0.2 1022230
08:00−19юв51097100 0.1 1019292
11:00−15ююв71195100 0.4 1016384
14:00−9ююв71295100 1.5 1012565
17:00−6ю71195100 3.5 1009655
20:00−5ю51096100 0.8 1008351
28 февраля, вс
вс2823:00−3ю5997100 1.1 1006309
02:00−1зюз4899100 1.1 1005334
05:00−4зсз2498100 1.2 1005132
08:00−6ссз1197100 0.3 100521
11:00−2юз2497100 0.8 1005252
14:000юз36100100 0.5 1005437
17:000юз489397 0.7 1006450
20:00−3юз489796 0.1 1008183
1 марта, пн
пн123:00−6зюз479782 0.1 1010104
02:00−7юз359692 0.0 1011100
05:00−7юз359695 0.1 1011106
08:00−6ююз3697100 0.4 1012180
11:00−5юз359796 0.4 1012204
14:00−3зюз349485 0.1 1012285
17:00−5зюз239665 0.1 101341
20:00−7зюз239624 0.0 101322